Saltar para o conteúdo principal

Horta (Obs. Principe Alberto)

ID 1200506 · 38.5408, -28.6323 mapa

Última leitura · 2026-05-09 18:00 (Europe/Lisbon)

Temperatura
16.3 °C
Humidade
79 %
Pressão
1,019.8 hPa
Precipitação
0.7 mm
Radiação
2,237 W/m²
Velocidade do vento
35.6 km/h
Direcção do vento
N · Norte

Histórico de 24 horas

Hora (Europe/Lisbon) Temperatura Humidade Pressão Chuva Vento Direcção
2026-05-09 18:00 16.3 °C 79 % 1,019.8 0.7 mm 35.6 km/h N
2026-05-09 17:00 16.7 °C 72 % 1,020.0 0.0 mm 28.8 km/h N
2026-05-09 16:00 16.6 °C 69 % 1,019.7 0.1 mm 36.7 km/h N
2026-05-09 15:00 16.1 °C 66 % 1,020.4 0.0 mm 35.3 km/h N
2026-05-09 14:00 16.2 °C 60 % 1,020.6 0.0 mm 36.4 km/h N
2026-05-09 13:00 15.3 °C 58 % 1,020.8 0.0 mm 36.0 km/h N
2026-05-09 12:00 14.7 °C 57 % 1,020.6 0.0 mm 27.0 km/h N
2026-05-09 11:00 14.3 °C 55 % 1,020.5 0.0 mm 30.6 km/h N
2026-05-09 10:00 13.5 °C 62 % 1,020.5 0.0 mm 20.5 km/h N
2026-05-09 09:00 12.6 °C 69 % 1,020.1 0.0 mm 23.8 km/h N
2026-05-09 08:00 11.8 °C 77 % 1,019.6 0.1 mm 16.9 km/h N
2026-05-09 07:00 12.3 °C 76 % 1,019.6 0.0 mm 20.2 km/h N
2026-05-09 06:00 12.6 °C 74 % 1,019.8 0.0 mm 24.8 km/h N
2026-05-09 05:00 12.5 °C 68 % 1,020.0 0.0 mm 21.6 km/h N
2026-05-09 04:00 12.4 °C 61 % 1,020.3 0.0 mm 23.4 km/h N
2026-05-09 03:00 12.8 °C 63 % 1,020.6 0.0 mm 22.0 km/h N
2026-05-09 02:00 13.3 °C 66 % 1,020.8 0.0 mm 23.4 km/h N
2026-05-09 01:00 13.5 °C 76 % 1,020.8 0.0 mm 30.2 km/h N
2026-05-09 00:00 13.6 °C 81 % 1,020.5 0.0 mm 28.1 km/h N
2026-05-08 23:00 14.3 °C 76 % 1,019.9 0.0 mm 27.0 km/h N
2026-05-08 22:00 14.7 °C 76 % 1,019.2 0.0 mm 27.7 km/h N
2026-05-08 21:00 15.5 °C 76 % 1,018.8 0.0 mm 23.4 km/h N
2026-05-08 20:00 15.9 °C 76 % 1,018.8 0.0 mm 19.8 km/h N
2026-05-08 19:00 16.4 °C 74 % 1,018.5 0.0 mm 28.1 km/h N